Regional Weather Roundup
Issued by NWS

Home | Current Version | Previous Version | Graphics & Text | Print | Product List | Glossary Off
Versions: 1 2 3 4 5 6 7 8 9 10 11 12 13 14 15 16 17 18 19 20 21 22 23 24 25 26 27 28 29 30 31 32 33 34 35 36 37 38 39 40 41 42 43 44 45 46 47 48 49 50

000
ASUS43 KTOP 250108
RWRKS

WEATHER ROUNDUP FOR KANSAS
NATIONAL WEATHER SERVICE GOODLAND KS
700 PM CST WED DEC 24 2014

NOTE:  "FAIR" INDICATES FEW OR NO CLOUDS BELOW 12,000 FEET WITH NO
SIGNIFICANT WEATHER AND/OR OBSTRUCTIONS TO VISIBILITY.

KSZ001>006-013>018-027>032-041>047-250200-
NORTHWEST KANSAS

CITY           SKY/WX    TMP DP  RH WIND       PRES   REMARKS
GOODLAND       PTCLDY    37  20  50 SW15      29.66F WCI  28
HAYS           PTCLDY    32  14  47 S6        29.75F
HILL CITY      PTCLDY    33  14  45 SW6       29.71F
RUSSELL        CLEAR     31  23  72 S10       29.74F WCI  22
$$

KSZ061>065-074>080-084>089-250200-
SOUTHWEST KANSAS

CITY           SKY/WX    TMP DP  RH WIND       PRES   REMARKS
DODGE CITY     CLEAR     29  16  58 S7        29.78F
ELKHART          N/A     38   8  29 S12         N/A  WCI  30
GARDEN CITY    CLEAR     32  17  54 S9        29.74F
GREAT BEND     CLEAR     30  21  69 S9        29.80F
LIBERAL        CLEAR     34  12  40 S9        29.80F
PRATT          CLEAR     30  23  74 S6        29.84F
$$

KSZ066>073-081>083-090>101-250200-
SOUTHEAST KANSAS

CITY           SKY/WX    TMP DP  RH WIND       PRES   REMARKS
CHANUTE        CLEAR     33  29  85 S5        29.91R
COFFEYVILLE    CLEAR     34  29  82 S5        29.93R
HUTCHINSON     CLEAR     33  23  66 S5        29.84S
MEDICINE LODGE   N/A     38  20  48 S7        29.86S
NEWTON         CLEAR     34  21  60 SW8       29.86S
PARSONS        CLEAR     29  27  92 CALM      29.93R
WICHITA INTL   PTCLDY    34  24  67 SW6       29.87R
WICHITA JABRA  CLEAR     35  24  64 SW7       29.87R
WICHITA MCCONL CLEAR     37  26  64 W5        29.87R
WINFIELD       CLEAR     35  29  78 S5        29.90R
$$

KSZ007>012-019>026-033>040-048>060-102>105-250200-
NORTHEAST KANSAS

CITY           SKY/WX    TMP DP  RH WIND       PRES   REMARKS
CONCORDIA      CLEAR     32  25  75 S8        29.76F
EMPORIA        CLEAR     28  26  92 S7        29.86R
LAWRENCE       CLOUDY    34  29  82 W13       29.86S WCI  25
MANHATTAN      CLEAR     28  25  88 CALM      29.83S
MARYSVILLE     CLEAR     28  28 100 S7        29.79S
OLATHE IND     CLOUDY    34  29  82 SW14      29.85S WCI  25
OLATHE EXE     CLOUDY    34  29  82 W10       29.84R WCI  26
SALINA         CLEAR     31  24  75 S7        29.81F
TOPEKA BILLARD CLOUDY    36  29  75 SW7       29.86S
TOPEKA FORBES  MOCLDY    33  28  81 SW7       29.85S
$$



USA.gov is the U.S. government's official web portal to all federal, state and local government web resources and services.